sat.trackr.live / text

‹ back to catalog

STARLINK-4769

NORAD 53843 · 2022-114AB

PAYLOAD ACTIVE UNKNOWN

§ Identity

Operator
Country
US
Launch date
2022-09-19
Launch site
AFETR
Launch vehicle
Mass (kg)
RCS (m²)

Purposes: comms

External: N2YO · Heavens-Above · Gunter

§ Orbital elements

Epoch: 2026-05-25T03:39:37.696032Z

Period
95.44 min
Inclination
53.2116°
Eccentricity
0.0001233
Mean motion
15.08838799 rev/d
Perigee alt
538.9 km
Apogee alt
540.6 km
Semi-major
6,917.9 km
B*
-1.9112e-6
RAAN
310.9528°
Arg perigee
93.9932°
Mean anomaly
266.1201°
Rev number
20,451

§ Raw data

STARLINK-47691 53843U 22114AB  26145.15251963 -.00000318  00000+0 -19112-5 0  99952 53843  53.2116 310.9528 0001233  93.9932 266.1201 15.08838799204513

JSON: /api/v1/satellites/53843 · /tle

For live sub-satellite position, see the globe view (requires WebGL).

§ Visibility from observer

Set your observer location to see the next 7 days of passes ≥ 10°. The values pass through the URL so the page stays shareable.

No JS? Fill the form by hand. The geolocation button needs JavaScript.